Regional Weather Roundup
Issued by NWS Raleigh/Durham, NC

Home | Current Version | Previous Version | Text Only | Print | Product List | Glossary On
Versions: 1 2 3 4 5 6 7 8 9 10 11 12 13 14 15 16 17 18 19 20 21 22 23 24 25 26 27 28 29 30 31 32 33 34 35 36 37 38 39 40 41 42 43 44 45 46 47 48 49 50
000
ASUS42 KRAH 031210
RWRRAH
NORTH CAROLINA WEATHER ROUNDUP
NATIONAL WEATHER SERVICE RALEIGH NC
800 AM EDT THU SEP 03 2015

NOTE: "FAIR" INDICATES FEW OR NO CLOUDS BELOW 12,000 FEET WITH NO
SIGNIFICANT WEATHER AND/OR OBSTRUCTIONS TO VISIBILITY.

NCZ001-053-055-056-065-067-031300-
WESTERN NORTH CAROLINA

CITY           SKY/WX    TMP DP  RH WIND       PRES   REMARKS
ASHEVILLE      PTSUNNY   69  64  84 N3        30.10R
JEFFERSON      PTSUNNY   66  55  67 NW3       30.13S
MORGANTON      MOSUNNY   66  66 100 CALM      30.08R FOG
HICKORY        MOSUNNY   70  66  87 W5        30.03R
RUTHERFORDTON  PTSUNNY   73  65  74 CALM      30.03R
MOUNT AIRY     MOSUNNY   71  66  85 CALM      30.04R
BOONE          MOSUNNY   60  60 100 CALM      30.14S FOG
$$

NCZ021-022-025-041-071-084-088-031300-
CENTRAL NORTH CAROLINA

CITY           SKY/WX    TMP DP  RH WIND       PRES   REMARKS
CHARLOTTE      PTSUNNY   73  67  81 N6        30.00R
GREENSBORO     PTSUNNY   71  67  87 W3        29.99R
WINSTON-SALEM  MOSUNNY   71  65  81 NW3       30.01S
RALEIGH-DURHAM FOG       69  68  96 CALM      29.97S VSB 1/4
FORT BRAGG     MOSUNNY   73  70  92 N2        29.95R
FAYETTEVILLE   MOSUNNY   73  70  90 N6        29.95R
BURLINGTON     MOSUNNY   68  68 100 SW3       29.98R
LAURINBURG     MOSUNNY   73  70  90 NE3       29.96R FOG
$$

NCZ011-015-027-028-043-044-047-080-103-031300-
NORTHEASTERN NORTH CAROLINA

CITY           SKY/WX    TMP DP  RH WIND       PRES   REMARKS
ROCKY MT-WILSO CLOUDY    71  69  93 NW3       29.95S
GREENVILLE     CLOUDY    70  70 100 NW3       29.97R FOG
WASHINGTON     FOG       69  68  98 NW5       29.94S VSB 1/4
ELIZABETH CITY SUNNY     72  70  93 CALM      29.93R
MANTEO         MOSUNNY   74  71  88 N3        29.93R
CAPE HATTERAS  MOSUNNY   77  72  84 N3        29.93R
$$

NCZ078-087-090-091-093-098-101-031300-
SOUTHEASTERN NORTH CAROLINA

CITY           SKY/WX    TMP DP  RH WIND       PRES   REMARKS
LUMBERTON      MOSUNNY   75  73  93 S5        29.93S FOG
GOLDSBORO      MOSUNNY   70  70  98 N7        29.94R
KENANSVILLE    FOG       70  69  98 CALM      29.95S VSB 1/4
NEW BERN       SUNNY     72  68  87 N6        29.94R
CHERRY POINT   PTSUNNY   74  69  85 N3        29.93S
BEAUFORT       MOSUNNY   73  71  93 NE5       29.93R
JACKSONVILLE   MOSUNNY   75  69  81 CALM      29.91S
WILMINGTON     MOSUNNY   75  70  84 S6        29.92F
$$




USA.gov is the U.S. government's official web portal to all federal, state and local government web resources and services.